Simultaneous Nadir Overpasses (SNOs) Predictions

Prediction of SNOs between LANDSAT-8 and METOP-A Satellite Orbit:

Table of predicted SNOs for the next 14.0 days since TLE Epoch: 6/8/2014
Index Date (LANDSAT-8) Time (LANDSAT-8) Lat,Lon (LANDSAT-8) SZA (LANDSAT-8 ) Date (METOP-A) Time (METOP-A) Lat,Lon (METOP-A) SZA (METOP-A ) Distance(km) Time Diff (sec)
1 06/08/2014 16:41:08 81.10, -30.66 60.40 06/08/2014 16:40:52 81.11, -30.57 60.40 1.41 16
2 06/08/2014 17:30:34 -81.13, 137.33 119.56 06/08/2014 17:31:31 -81.12, 137.29 119.54 0.76 57
3 06/11/2014 12:15:24 81.11, 35.90 60.18 06/11/2014 12:15:18 81.11, 36.09 60.20 3.16 6
4 06/11/2014 13:04:50 -81.14,-156.10 119.77 06/11/2014 13:05:57 -81.13,-156.02 119.73 1.42 67
5 06/14/2014 07:00:15 -81.09, -65.66 120.05 06/14/2014 06:59:06 -81.08, -65.77 120.10 1.88 69
6
